Home > Weather > Crailsheim > Past weeks

Flag for Germany Weather for the Past 2 Weeks in Crailsheim, Baden-Württemberg, Germany

Now
50 °F

Partly sunny.


Feels Like: 46 °F
Forecast: 36 / 54 °F
Wind: 10 mph from Southwest

Location: Niederstetten

Current Time: May 3, 2016 at 9:24:59 AM

Latest Report: May 3, 2016 at 8:20 AM


Visibility: N/A

Pressure: 30.07 "Hg

Humidity: 71%

Dew Point: 41 °F

Location of CrailsheimLocation

Historic Weather in Crailsheim — Graph

°F

Crailsheim Temperature Yesterday

Maximum temperature yesterday: 63 °F (at 4:20 PM)
Minimum temperature yesterday: 41 °F (at 5:20 AM)
Average temperature yesterday: 53 °F

High & Low Weather Summary for the Past Weeks

 TemperatureHumidityPressure
High63 °F (Apr 21, 3:20 PM)100% (Apr 26, 7:20 AM)30.39 "Hg (Apr 26, 7:20 AM)
Low30 °F (Apr 24, 6:20 AM)30% (Apr 20, 3:20 PM)29.50 "Hg (Apr 26, 5:20 AM)
Average44 °F70%29.99 "Hg
* Reported Apr 18 8:20 AM — May 3 7:20 AM, Crailsheim, Weather by CustomWeather, © 2016

Note: Actual official high and low records may vary slightly from our data, if they occured in-between our weather recording intervals... More about our weather records

Advertising

Crailsheim Weather History for the Previous 24 Hours

Scroll right to see more
 ConditionsComfort  
Time TempWeatherWind HumidityBarometerVisibility
7:20 AM
Tue, May 3
48 °FBroken clouds.10 mph71%30.07 "HgN/A
6:20 AM48 °FPassing clouds.7 mph66%30.07 "HgN/A
5:20 AM48 °FPassing clouds.7 mph66%30.07 "HgN/A
4:20 AM48 °FPassing clouds.7 mph62%30.07 "HgN/A
3:20 AM46 °FPassing clouds.3 mph66%30.07 "HgN/A
2:20 AM45 °FPassing clouds.3 mph71%30.09 "HgN/A
1:20 AM48 °FPassing clouds.1 mph62%30.09 "HgN/A
12:20 AM50 °FPassing clouds.3 mph58%30.09 "HgN/A
11:20 PM
Mon, May 2
52 °FPassing clouds.3 mph58%30.09 "HgN/A
11:00 PM50 °FPassing clouds.3 mph62%30.09 "HgN/A
10:20 PM54 °FPassing clouds.2 mph54%30.09 "HgN/A
9:20 PM55 °FPassing clouds.2 mph47%30.09 "HgN/A
8:20 PM59 °FPassing clouds.1 mph42%30.09 "HgN/A
7:20 PM63 °FPassing clouds.5 mph37%30.09 "HgN/A
6:20 PM63 °FPassing clouds.2 mph39%30.09 "HgN/A
5:20 PM63 °FPassing clouds.5 mph39%30.12 "HgN/A
4:20 PM63 °FPassing clouds.5 mph42%30.12 "HgN/A
3:20 PM61 °FPassing clouds.8 mph48%30.15 "HgN/A
2:20 PM59 °FPassing clouds.10 mph51%30.15 "HgN/A
1:20 PM59 °FScattered clouds.10 mph48%30.18 "HgN/A
12:20 PM57 °FPassing clouds.9 mph55%30.18 "HgN/A
11:20 AM55 °FPassing clouds.8 mph55%30.18 "HgN/A
10:20 AM55 °FPassing clouds.7 mph55%30.21 "HgN/A
9:20 AM52 °FCool.8 mph62%30.21 "HgN/A
Weather by CustomWeather, © 2016

See weather overviewHow to use our weather pages